Location: Schommer Observatory
(40.5200°N, 74.4500°W)
Time: 03:02:11
(UTC-04:00)

Envisat - Visible Passes

Search period start: 21 September 2017 00:00
Search period end: 01 October 2017 00:00
Orbit: 764 x 766 km, 98.2° (Epoch: 20 September)

Date Brightness Start Highest point End Pass type
(mag) Time Alt. Az. Time Alt. Az. Time Alt. Az.
21 Sep 4.5 19:29:14 10° ESE 19:32:33 18° ENE 19:35:52 10° NNE visible
21 Sep 3.5 21:08:43 30° SSW 21:11:05 57° W 21:16:06 10° NNW visible
22 Sep 2.9 20:31:44 28° SSE 20:34:23 65° ENE 20:39:26 10° N visible
22 Sep 5.6 22:11:57 12° WSW 22:13:50 14° W 22:16:31 10° WNW visible
23 Sep 3.9 19:54:45 16° ESE 19:57:53 30° ENE 20:02:15 10° N visible
23 Sep 4.5 21:34:58 25° SW 21:36:48 32° W 21:41:20 10° NNW visible
24 Sep 4.7 19:18:59 10° E 19:21:35 14° ENE 19:24:12 10° NNE visible
24 Sep 3.1 20:58:00 38° S 20:59:58 73° WSW 21:05:04 10° NNW visible
25 Sep 3.1 20:21:01 29° SE 20:23:19 51° ENE 20:28:15 10° N visible
25 Sep 5.3 22:01:14 16° WSW 22:02:37 18° W 22:06:05 10° NW visible
26 Sep 4.1 19:44:02 15° ESE 19:46:53 24° ENE 19:50:53 10° NNE visible
26 Sep 4.1 21:24:15 33° SW 21:25:39 40° W 21:30:26 10° NNW visible
27 Sep 4.9 19:09:08 10° ENE 19:10:38 11° ENE 19:12:10 10° NE visible
27 Sep 2.9 20:47:16 45° SSE 20:48:53 89° ENE 20:53:59 10° NNW visible
28 Sep 3.4 20:10:18 28° ESE 20:12:17 40° ENE 20:17:01 10° N visible
28 Sep 5.0 21:50:31 22° WSW 21:51:25 23° W 21:55:26 10° NW visible
29 Sep 4.4 19:33:20 14° E 19:35:54 19° ENE 19:39:26 10° NNE visible
29 Sep 3.6 21:13:33 45° SW 21:14:30 51° W 21:19:28 10° NNW visible
30 Sep 2.9 20:36:35 51° SE 20:37:47 71° ENE 20:42:51 10° N visible
30 Sep 5.7 22:16:47 13° W 22:17:18 13° W 22:19:33 10° WNW visible
